#timestamp,LO_Frequency,Hit,StdDev 
1637139615.4,286046999.1,N
1637139635.2,286046996.5,N
1637139655.0,286046999.3,N
1637139655.9,286046999.3,N
1637139675.8,286046999.6,N
1637139695.6,286046996.8,N
1637139715.4,286046997.5,N
1637139735.3,286046999.2,N
1637139755.1,286046999.5,N
1637139756.0,286046999.5,N
1637139775.8,286046996.9,N
1637139795.7,286046997.0,N
1637139815.5,286046996.5,N
1637139835.3,286046999.5,N
1637139855.2,286046997.4,N
1637139875.9,286046998.0,N
1637139895.7,286046998.3,N
1637139915.6,286046999.3,N
1637139935.4,286046996.5,N
1637139955.2,286046996.9,N
1637139975.1,286046998.7,N
1637139976.0,286046998.7,N
1637139995.8,286047000.6,N
1637140015.6,286046998.2,N
1637140035.5,286046998.2,N
1637140055.3,286047001.0,N
1637140075.1,286047001.1,N
1637140095.9,286046998.9,N
1637140115.7,286046998.7,N
1637140135.5,286046998.7,N
1637140155.4,286046999.2,N
1637140175.2,286046996.6,N
1637140195.0,286046999.3,N
1637140195.9,286046999.3,N
1637140215.8,286046998.1,N
1637140235.6,286046998.2,N
1637140255.4,286046998.8,N
1637140275.3,286046998.4,N
1637140295.1,286046998.8,N
1637140315.8,286046999.0,N
1637140335.7,286046997.0,N
1637140355.5,286046996.5,N
1637140375.3,286046999.6,N
1637140395.2,286046996.8,N
1637140415.9,286046997.8,N
1637140435.7,286046997.1,N
1637140455.6,286046997.1,N
1637140475.4,286046999.1,N
1637140495.2,286046999.1,N
1637140515.1,286046997.2,N
1637140516.0,286046997.2,N
1637140535.8,286046998.9,N
1637140555.6,286046998.6,N
1637140575.5,286046998.4,N
1637140595.3,286047000.8,N
1637140615.1,286047000.9,N
1637140635.9,286046998.4,N
1637140655.7,286046997.0,N
1637140675.5,286046996.5,Y
1637140695.4,286046999.7,P
1637140715.2,286047002.4,P
1637140735.0,286046999.9,N
1637140735.9,286046999.9,N
1637140755.8,286047000.2,N
1637140775.6,286047002.3,N
1637140795.5,286047002.7,N
1637140815.3,286047001.0,N
1637140835.1,286047000.9,N
1637140855.9,286047002.4,N
1637140875.7,286047000.4,N
1637140895.5,286047001.2,N
1637140915.4,286046998.5,N
1637140935.2,286047000.2,N
1637140955.0,286047002.8,N
1637140955.9,286047002.8,N
1637140975.8,286046999.8,N
1637140995.6,286047000.5,N
1637141015.4,286047001.2,N
1637141035.3,286047000.7,N
1637141055.1,286046998.8,N
1637141056.0,286046998.8,N
1637141075.8,286046998.9,N
1637141095.7,286047000.6,N
1637141115.5,286046998.6,N
1637141135.3,286046998.5,N
1637141155.2,286047000.6,N
1637141175.9,286047000.5,N
1637141195.7,286047000.3,N
1637141215.6,286047000.3,N
1637141235.4,286046998.2,N
1637141255.2,286047001.1,N
1637141275.1,286047002.4,N
1637141276.0,286047002.4,N
1637141295.8,286047002.3,N
1637141315.6,286046999.8,N
1637141335.5,286047002.2,N
1637141355.3,286047002.7,N
1637141375.1,286047002.7,N
1637141395.9,286047000.2,N
1637141415.7,286047001.3,N
1637141435.5,286047001.5,N
1637141455.4,286047002.7,N
1637141475.2,286047002.6,N
1637141495.0,286047002.6,N
1637141495.9,286047002.6,N
1637141515.8,286047002.7,N
1637141535.6,286047000.1,N
1637141555.5,286047002.3,N
1637141575.3,286046999.7,N
1637141595.1,286047002.0,N
1637141615.9,286047002.3,N
1637141635.7,286047000.1,N
1637141655.5,286047000.2,N
1637141675.4,286047001.0,N
1637141695.2,286047000.4,N
1637141715.0,286047001.2,N
1637141715.9,286047001.2,N
1637141735.8,286047002.6,N
1637141755.6,286047002.5,N
1637141775.4,286047001.7,N
1637141795.3,286046999.8,N
1637141815.1,286047002.1,N
1637141816.0,286047002.1,N
1637141835.8,286047001.6,N
1637141855.7,286047000.1,N
1637141875.5,286047002.6,N
1637141895.3,286047002.3,N
1637141915.2,286047002.1,N
1637141935.9,286047002.7,N
1637141955.7,286047002.8,N
1637141975.6,286047002.5,N
1637141995.4,286047002.0,N
1637142015.2,286047001.5,N
1637142035.1,286047002.6,N
1637142036.0,286047002.6,N
1637142055.8,286047004.4,Y
1637142075.6,286047000.3,P
1637142095.5,286047000.8,N
1637142115.3,286047000.5,N
1637142135.2,286047001.6,Y
1637142155.9,286047000.0,P
1637142175.7,286046998.3,P
1637142195.6,286047000.4,N
1637142215.4,286047000.1,N
1637142235.2,286047000.1,N
1637142255.1,286046998.7,N
1637142256.0,286046998.7,N
1637142275.8,286046998.4,N
1637142295.6,286047000.8,N
1637142315.5,286047000.5,N
1637142335.3,286047000.4,N
1637142355.1,286047001.1,N
1637142375.9,286046998.7,N
1637142395.7,286047000.5,N
1637142415.5,286047000.6,N
1637142435.4,286047000.5,N
1637142455.2,286046999.8,N
1637142475.0,286047002.1,N
1637142475.9,286047002.1,N
1637142495.8,286047000.8,N
1637142515.6,286046998.3,N
1637142535.4,286047001.1,N
1637142555.3,286047000.5,N
1637142575.1,286047000.7,N
1637142595.8,286047000.8,N
1637142615.7,286047000.5,N
1637142635.5,286047001.0,N
1637142655.3,286047001.1,N
1637142675.2,286046998.3,N
1637142695.0,286047000.3,N
1637142695.9,286047000.3,N
1637142715.7,286047000.5,N
1637142735.6,286046998.2,N
1637142755.4,286046998.5,N
1637142775.2,286046998.1,N
1637142795.1,286047000.8,N
1637142796.0,286047000.8,N
1637142815.8,286047000.0,N
1637142835.6,286047001.0,N
1637142855.5,286047000.1,N
1637142875.3,286047002.3,N
1637142895.2,286047002.8,N
1637142915.9,286047000.0,N
1637142935.7,286047002.3,N
1637142955.6,286047000.0,N
1637142975.4,286046998.3,N
1637142995.2,286046998.1,N
1637143015.1,286046998.6,N
1637143016.0,286046998.6,N
1637143035.8,286046998.2,N
1637143055.6,286046996.9,N
1637143075.5,286046996.5,N
1637143095.3,286046998.8,N
1637143115.1,286046998.3,N
1637143135.9,286046998.8,N
1637143155.7,286047000.5,N
1637143175.5,286047002.8,N
1637143195.4,286047000.3,N
